Weather History for Prague, Czech Republic

Change the Weather History Date:

Tuesday, June 3, 2014

  Actual Average Record
Temperature  
Mean Temperature 56 °F -  
Max Temperature 66 °F 71 °F 82 °F (2003)
Min Temperature 45 °F 51 °F 41 °F (2012)
Degree Days  
Heating Degree Days 10    
Growing Degree Days 6 (Base 50)    
Moisture  
Dew Point 46 °F    
Average Humidity 67    
Maximum Humidity 93    
Minimum Humidity 35    
Precipitation  
Precipitation 0.00 in 0.09 in - ()
Sea Level Pressure  
Sea Level Pressure 29.98 in    
Wind  
Wind Speed 6 mph ()    
Max Wind Speed 14 mph    
Max Gust Speed -    
Visibility 8.8 miles    
Events      
Averages and records for this station are not official NWS values.
T = Trace of Precipitation, MM = Missing Value Source: Averaged Metar Reports

Daily Weather History Graph

Daily Weather History Graph

Search for Another Location

Airport:

Trip Planner

Search our weather history database for the weather conditions in past years. The results will help you decide how hot, cold, wet, or windy it might be!

Date:

Astronomy

Jun. 03, 2014 Rise Set
Actual Time 4:57 AM CEST 9:05 PM CEST
Civil Twilight 4:13 AM CEST 9:49 PM CEST
Nautical Twilight 3:12 AM CEST 10:51 PM CEST
Astronomical Twilight 1:33 AM CEST 12:28 AM CEST
Moon 10:24 AM CEST (6/3) 12:05 AM CEST (6/3)
Length of Visible Light 17h 35m
Length of Day
16h 08m
Waxing Crescent, 28% of the Moon is Illuminated
Jun 3
Waxing Crescent
Jun 5
First Quarter
Jun 13
Full
Jun 19
Last Quarter
Jun 27
New

Hourly Weather History & Observations

Time (CEST) Temp. Windchill Dew Point Humidity Pressure Visibility Wind Dir Wind Speed Gust Speed Precip Events Conditions
12:00 AM 49 °F - 45 °F 83% 30.05 in 31 mi WSW 6.7 mph - -   Partly Cloudy
12:00 AM 50.0 °F - 44.6 °F 82% 30.04 in - WSW 4.6 mph - N/A   Clear
12:30 AM 48.2 °F - 44.6 °F 87% 30.04 in - SW 5.8 mph - N/A   Clear
1:00 AM 49 °F - 45 °F 82% 30.04 in 25 mi WSW 6.7 mph - -   Mostly Cloudy
1:00 AM 48.2 °F - 44.6 °F 87% 30.01 in - WSW 6.9 mph - N/A   Clear
1:30 AM 48.2 °F - 44.6 °F 87% 30.01 in - WSW 4.6 mph - N/A   Clear
2:00 AM 48 °F - 44 °F 83% 30.04 in 22 mi WSW 6.7 mph - -   Partly Cloudy
2:00 AM 48.2 °F - 44.6 °F 87% 30.01 in - SW 5.8 mph - N/A   Clear
2:30 AM 46.4 °F 43.5 °F 44.6 °F 93% 30.01 in - SW 5.8 mph - N/A   Clear
3:00 AM 48 °F - 44 °F 80% 30.03 in 19 mi WSW 6.7 mph - -   Mostly Cloudy
3:00 AM 48.2 °F - 42.8 °F 82% 30.01 in - SW 8.1 mph - N/A   Clear
3:30 AM 48.2 °F - 42.8 °F 82% 30.01 in - SW 5.8 mph - N/A   Clear
4:00 AM 48 °F - 43 °F 78% 30.02 in 19 mi WSW 6.7 mph - -   Mostly Cloudy
4:00 AM 48.2 °F - 42.8 °F 82% 30.01 in - SW 5.8 mph - N/A   Clear
4:30 AM 46.4 °F 43.5 °F 42.8 °F 87% 29.98 in - SW 5.8 mph - N/A   Clear
5:00 AM 46 °F - 43 °F 84% 30.02 in 22 mi WSW 6.7 mph - -   Partly Cloudy
5:00 AM 46.4 °F 44.3 °F 42.8 °F 87% 29.98 in - SW 4.6 mph - N/A   Clear
5:30 AM 46.4 °F 43.5 °F 42.8 °F 87% 29.98 in - SW 5.8 mph - N/A   Clear
6:00 AM 46 °F - 44 °F 88% 30.01 in 25 mi SW 6.7 mph - -   Mostly Cloudy
6:00 AM 46.4 °F 43.5 °F 42.8 °F 87% 29.98 in - SW 5.8 mph - N/A   Clear
6:30 AM 48.2 °F - 44.6 °F 87% 29.98 in - SW 5.8 mph - N/A   Clear
7:00 AM 49 °F - 46 °F 86% 30.01 in 28 mi SW 6.7 mph - -   Mostly Cloudy
7:00 AM 50.0 °F - 46.4 °F 87% 29.98 in - SW 5.8 mph - N/A   Clear
7:30 AM 50.0 °F - 46.4 °F 87% 29.98 in - SW 8.1 mph - N/A   Clear
8:00 AM 53 °F - 47 °F 72% 30.00 in 28 mi WSW 6.7 mph - -   Mostly Cloudy
8:00 AM 53.6 °F - 46.4 °F 77% 29.98 in - SW 6.9 mph - N/A   Clear
8:30 AM 55.4 °F - 48.2 °F 77% 29.98 in - SW 6.9 mph - N/A   Clear
9:00 AM 60 °F - 48 °F 54% 29.98 in 37 mi West 6.7 mph - -   Scattered Clouds
9:00 AM 59.0 °F - 48.2 °F 67% 29.98 in 6.2 mi West 5.8 mph - N/A   Partly Cloudy
9:30 AM 60.8 °F - 44.6 °F 55% 29.98 in 6.2 mi WNW 4.6 mph - N/A   Partly Cloudy
10:00 AM 62 °F - 43 °F 39% 29.97 in 37 mi NW 6.7 mph - -   Scattered Clouds
10:00 AM 62.6 °F - 44.6 °F 52% 29.98 in 6.2 mi NW 6.9 mph - N/A   Partly Cloudy
10:30 AM 62.6 °F - 46.4 °F 55% 29.98 in 6.2 mi NW 6.9 mph - N/A   Scattered Clouds
11:00 AM 63 °F - 46 °F 43% 29.97 in 44 mi NW 8.9 mph - -   Partly Cloudy
11:00 AM 62.6 °F - 46.4 °F 55% 29.98 in 6.2 mi NNW 8.1 mph - N/A   Partly Cloudy
11:30 AM 62.6 °F - 46.4 °F 55% 29.98 in 6.2 mi North 6.9 mph - N/A   Scattered Clouds
12:00 PM 61 °F - 45 °F 45% 29.97 in 44 mi WNW 4.5 mph - -   Partly Cloudy
12:00 PM 60.8 °F - 46.4 °F 59% 29.98 in 6.2 mi WNW 5.8 mph - N/A   Scattered Clouds
12:30 PM 64.4 °F - 48.2 °F 56% 29.98 in 6.2 mi West 6.9 mph - N/A   Partly Cloudy
1:00 PM 65 °F - 44 °F 35% 29.95 in 47 mi West 4.5 mph - -   Mostly Cloudy
1:00 PM 64.4 °F - 44.6 °F 49% 29.95 in - South 5.8 mph - N/A   Clear
1:30 PM 62.6 °F - 46.4 °F 55% 29.95 in - NNW 13.8 mph - N/A   Clear
2:00 PM 59 °F - 45 °F 50% 29.96 in 47 mi North 8.9 mph - -   Partly Cloudy
2:00 PM 59.0 °F - 44.6 °F 59% 29.98 in - North 8.1 mph - N/A   Clear
2:30 PM 60.8 °F - 44.6 °F 55% 29.95 in - NNW 5.8 mph - N/A   Clear
3:00 PM 61 °F - 45 °F 45% 29.95 in 47 mi North 6.7 mph - -   Partly Cloudy
3:00 PM 60.8 °F - 44.6 °F 55% 29.95 in - NNW 6.9 mph - N/A   Clear
3:30 PM 62.6 °F - 46.4 °F 55% 29.95 in - NNW 8.1 mph - N/A   Clear
4:00 PM 64 °F - 47 °F 42% 29.94 in 47 mi North 8.9 mph - -   Scattered Clouds
4:00 PM 64.4 °F - 46.4 °F 52% 29.95 in - NW 8.1 mph - N/A   Clear
4:30 PM 62.6 °F - 48.2 °F 59% 29.95 in - NNW 6.9 mph - N/A   Clear
5:00 PM 62 °F - 46 °F 45% 29.94 in 47 mi NNW 4.5 mph - -   Scattered Clouds
5:00 PM 60.8 °F - 46.4 °F 59% 29.95 in - WNW 3.5 mph - N/A   Clear
5:30 PM 60.8 °F - 46.4 °F 59% 29.95 in - West 3.5 mph - N/A   Clear
6:00 PM 61 °F - 46 °F 48% 29.94 in 47 mi NW 4.5 mph - -   Scattered Clouds
6:00 PM 60.8 °F - 46.4 °F 59% 29.95 in - Variable 2.3 mph - N/A   Clear
6:30 PM 62.6 °F - 46.4 °F 55% 29.95 in - West 3.5 mph - N/A   Clear
7:00 PM 62 °F - 46 °F 45% 29.93 in 47 mi WNW 2.2 mph - -   Scattered Clouds
7:00 PM 60.8 °F - 46.4 °F 59% 29.95 in - Variable 2.3 mph - N/A   Clear
7:30 PM 60.8 °F - 46.4 °F 59% 29.95 in - Variable 2.3 mph - N/A   Clear
8:00 PM 61 °F - 45 °F 45% 29.94 in 47 mi SSE 2.2 mph - -   Scattered Clouds
8:00 PM 60.8 °F - 46.4 °F 59% 29.95 in - Variable 2.3 mph - N/A   Clear
8:30 PM 60.8 °F - 46.4 °F 59% 29.95 in - East 4.6 mph - N/A   Clear
9:00 PM 59 °F - 47 °F 56% 29.95 in 44 mi East 2.2 mph - -   Scattered Clouds
9:00 PM 59.0 °F - 48.2 °F 67% 29.95 in - East 3.5 mph - N/A   Clear
9:30 PM 57.2 °F - 48.2 °F 72% 29.95 in - SSE 3.5 mph - N/A   Clear
10:00 PM 55 °F - 48 °F 71% 29.96 in 37 mi South 4.5 mph - -   Scattered Clouds
10:00 PM 53.6 °F - 48.2 °F 82% 29.95 in - SSE 3.5 mph - N/A   Clear
10:30 PM 53.6 °F - 48.2 °F 82% 29.95 in - SSE 3.5 mph - N/A   Clear
11:00 PM 53 °F - 48 °F 76% 29.96 in 37 mi South 2.2 mph - -   Mostly Cloudy
11:00 PM 51.8 °F - 46.4 °F 82% 29.95 in - SSE 3.5 mph - N/A   Clear
11:30 PM 53.6 °F - 48.2 °F 82% 29.95 in - SSE 2.3 mph - N/A   Clear